Time,TemperatureF,DewpointF,PressureIn,WindDirection,WindDirectionDegrees,WindSpeedMPH,WindSpeedGustMPH,Humidity,HourlyPrecipIn,Conditions,Clouds,dailyrainin,SoftwareType,DateUTC
2013-04-28 00:01:00,50.6,42.3,30.27,ESE,111,0.0,0.0,73,0.00,,,0.00,Wunderground v.1.15,2013-04-28 04:01:00,
2013-04-28 00:05:00,50.4,42.1,30.27,ESE,111,0.0,1.0,73,0.00,,,0.00,Wunderground v.1.15,2013-04-28 04:05:00,
2013-04-28 00:06:00,50.4,42.1,30.27,ESE,111,0.0,1.0,73,0.00,,,0.00,Wunderground v.1.15,2013-04-28 04:06:00,
2013-04-28 00:09:00,50.3,42.0,30.27,ESE,111,0.0,1.0,73,0.00,,,0.00,Wunderground v.1.15,2013-04-28 04:09:00,
2013-04-28 00:11:00,50.2,41.5,30.27,ESE,111,0.0,0.0,72,0.00,,,0.00,Wunderground v.1.15,2013-04-28 04:11:00,
2013-04-28 00:16:00,50.1,41.8,30.27,ESE,111,0.0,2.0,73,0.00,,,0.00,Wunderground v.1.15,2013-04-28 04:16:00,
2013-04-28 00:22:00,50.0,41.3,30.27,ESE,111,1.0,1.0,72,0.00,,,0.00,Wunderground v.1.15,2013-04-28 04:22:00,
2013-04-28 00:28:00,50.1,41.8,30.27,ESE,111,3.0,3.0,73,0.00,,,0.00,Wunderground v.1.15,2013-04-28 04:28:00,
2013-04-28 00:33:00,50.3,41.6,30.27,ESE,111,2.0,2.0,72,0.00,,,0.00,Wunderground v.1.15,2013-04-28 04:33:00,
2013-04-28 00:39:00,50.7,41.6,30.27,ESE,111,0.0,2.0,71,0.00,,,0.00,Wunderground v.1.15,2013-04-28 04:39:00,
2013-04-28 00:44:00,51.1,41.3,30.27,ESE,111,0.0,1.0,69,0.00,,,0.00,Wunderground v.1.15,2013-04-28 04:44:00,
2013-04-28 00:49:00,51.5,42.0,30.27,ESE,111,2.0,3.0,70,0.00,,,0.00,Wunderground v.1.15,2013-04-28 04:49:00,
2013-04-28 00:55:00,51.8,41.9,30.26,ESE,111,1.0,3.0,69,0.00,,,0.00,Wunderground v.1.15,2013-04-28 04:55:00,
2013-04-28 01:00:00,51.9,41.7,30.26,ESE,111,1.0,1.0,68,0.00,,,0.00,Wunderground v.1.15,2013-04-28 05:00:00,
2013-04-28 01:06:00,52.2,42.0,30.26,ESE,111,1.0,5.0,68,0.00,,,0.00,Wunderground v.1.15,2013-04-28 05:06:00,
2013-04-28 01:11:00,52.4,42.5,30.26,ESE,111,0.0,1.0,69,0.00,,,0.00,Wunderground v.1.15,2013-04-28 05:11:00,
2013-04-28 01:16:00,52.5,42.6,30.26,ESE,111,0.0,1.0,69,0.00,,,0.00,Wunderground v.1.15,2013-04-28 05:16:00,
2013-04-28 01:22:00,52.4,42.5,30.26,ESE,111,0.0,1.0,69,0.00,,,0.00,Wunderground v.1.15,2013-04-28 05:22:00,
2013-04-28 01:27:00,52.1,42.6,30.26,ESE,111,2.0,2.0,70,0.00,,,0.00,Wunderground v.1.15,2013-04-28 05:27:00,
2013-04-28 01:33:00,52.1,42.6,30.26,ESE,111,0.0,2.0,70,0.00,,,0.00,Wunderground v.1.15,2013-04-28 05:33:00,
2013-04-28 01:38:00,52.1,42.6,30.26,ESE,111,0.0,2.0,70,0.00,,,0.00,Wunderground v.1.15,2013-04-28 05:38:00,
2013-04-28 01:43:00,52.0,42.5,30.26,ESE,111,3.0,3.0,70,0.00,,,0.00,Wunderground v.1.15,2013-04-28 05:43:00,
2013-04-28 01:49:00,52.0,42.5,30.26,ESE,111,0.0,3.0,70,0.00,,,0.00,Wunderground v.1.15,2013-04-28 05:49:00,
2013-04-28 01:55:00,52.1,42.6,30.26,ESE,111,0.0,2.0,70,0.00,,,0.00,Wunderground v.1.15,2013-04-28 05:55:00,
2013-04-28 02:00:00,52.0,42.9,30.26,ESE,111,1.0,1.0,71,0.00,,,0.00,Wunderground v.1.15,2013-04-28 06:00:00,
2013-04-28 02:05:00,51.9,43.2,30.27,ESE,111,1.0,3.0,72,0.00,,,0.00,Wunderground v.1.15,2013-04-28 06:05:00,
2013-04-28 02:10:00,51.8,42.7,30.26,ESE,111,1.0,1.0,71,0.00,,,0.00,Wunderground v.1.15,2013-04-28 06:10:00,
2013-04-28 02:15:00,51.7,42.6,30.26,ESE,111,0.0,4.0,71,0.00,,,0.00,Wunderground v.1.15,2013-04-28 06:15:00,
2013-04-28 02:20:00,51.6,42.5,30.26,ESE,111,1.0,2.0,71,0.00,,,0.00,Wunderground v.1.15,2013-04-28 06:20:00,
2013-04-28 02:25:00,51.7,43.0,30.26,ESE,111,1.0,4.0,72,0.00,,,0.00,Wunderground v.1.15,2013-04-28 06:25:00,
2013-04-28 02:30:00,51.7,43.0,30.26,ESE,111,0.0,2.0,72,0.00,,,0.00,Wunderground v.1.15,2013-04-28 06:30:00,
2013-04-28 02:35:00,51.8,42.7,30.25,ESE,111,1.0,6.0,71,0.00,,,0.00,Wunderground v.1.15,2013-04-28 06:35:00,
2013-04-28 02:40:00,52.0,42.5,30.25,ESE,111,3.0,3.0,70,0.00,,,0.00,Wunderground v.1.15,2013-04-28 06:40:00,
2013-04-28 02:45:00,52.3,42.8,30.25,ESE,111,4.0,5.0,70,0.00,,,0.00,Wunderground v.1.15,2013-04-28 06:45:00,
2013-04-28 02:50:00,52.5,42.2,30.25,ESE,111,2.0,3.0,68,0.00,,,0.00,Wunderground v.1.15,2013-04-28 06:50:00,
2013-04-28 02:55:00,52.6,42.3,30.25,ESE,111,2.0,4.0,68,0.00,,,0.00,Wunderground v.1.15,2013-04-28 06:55:00,
2013-04-28 03:00:00,52.8,41.7,30.24,ESE,117,6.0,7.0,66,0.00,,,0.00,Wunderground v.1.15,2013-04-28 07:00:00,
2013-04-28 03:05:00,53.1,42.4,30.24,ESE,120,2.0,10.0,67,0.00,,,0.00,Wunderground v.1.15,2013-04-28 07:05:00,
2013-04-28 03:10:00,53.3,42.2,30.23,ESE,120,3.0,4.0,66,0.00,,,0.00,Wunderground v.1.15,2013-04-28 07:10:00,
2013-04-28 03:15:00,53.4,42.7,30.23,ESE,119,3.0,8.0,67,0.00,,,0.00,Wunderground v.1.15,2013-04-28 07:15:00,
2013-04-28 03:20:00,53.3,43.0,30.23,ESE,119,2.0,3.0,68,0.00,,,0.00,Wunderground v.1.15,2013-04-28 07:20:00,
2013-04-28 03:26:00,53.0,42.7,30.23,ESE,119,0.0,5.0,68,0.00,,,0.00,Wunderground v.1.15,2013-04-28 07:26:00,
2013-04-28 03:31:00,52.7,42.8,30.24,ESE,119,1.0,1.0,69,0.00,,,0.00,Wunderground v.1.15,2013-04-28 07:31:00,
2013-04-28 03:36:00,52.6,42.3,30.23,ESE,119,5.0,7.0,68,0.00,,,0.00,Wunderground v.1.15,2013-04-28 07:36:00,
2013-04-28 03:41:00,52.6,42.7,30.23,ESE,119,2.0,3.0,69,0.00,,,0.00,Wunderground v.1.15,2013-04-28 07:41:00,
2013-04-28 03:46:00,52.4,42.5,30.23,ESE,119,0.0,4.0,69,0.00,,,0.00,Wunderground v.1.15,2013-04-28 07:46:00,
2013-04-28 03:51:00,52.2,42.7,30.23,ESE,119,2.0,2.0,70,0.00,,,0.00,Wunderground v.1.15,2013-04-28 07:51:00,
2013-04-28 03:56:00,52.0,42.1,30.23,ESE,119,3.0,5.0,69,0.00,,,0.00,Wunderground v.1.15,2013-04-28 07:56:00,
2013-04-28 04:01:00,52.1,42.2,30.23,ESE,119,3.0,5.0,69,0.00,,,0.00,Wunderground v.1.15,2013-04-28 08:01:00,
2013-04-28 04:06:00,52.0,42.1,30.23,ESE,119,4.0,6.0,69,0.00,,,0.00,Wunderground v.1.15,2013-04-28 08:06:00,
2013-04-28 04:11:00,51.9,42.4,30.23,ESE,119,4.0,4.0,70,0.00,,,0.00,Wunderground v.1.15,2013-04-28 08:11:00,
2013-04-28 04:16:00,51.8,42.3,30.23,ESE,119,2.0,6.0,70,0.00,,,0.00,Wunderground v.1.15,2013-04-28 08:16:00,
2013-04-28 04:21:00,51.6,42.1,30.23,ESE,119,2.0,4.0,70,0.00,,,0.00,Wunderground v.1.15,2013-04-28 08:21:00,
2013-04-28 04:26:00,51.5,42.0,30.23,ESE,119,3.0,5.0,70,0.00,,,0.00,Wunderground v.1.15,2013-04-28 08:26:00,
2013-04-28 04:31:00,51.5,42.4,30.23,ESE,119,1.0,2.0,71,0.00,,,0.00,Wunderground v.1.15,2013-04-28 08:31:00,
2013-04-28 04:36:00,51.5,42.0,30.23,ESE,119,2.0,6.0,70,0.00,,,0.00,Wunderground v.1.15,2013-04-28 08:36:00,
2013-04-28 04:41:00,51.5,42.0,30.23,ESE,119,2.0,6.0,70,0.00,,,0.00,Wunderground v.1.15,2013-04-28 08:41:00,
2013-04-28 04:46:00,51.4,41.9,30.23,ESE,119,0.0,6.0,70,0.00,,,0.00,Wunderground v.1.15,2013-04-28 08:46:00,
2013-04-28 04:51:00,51.4,41.9,30.23,ESE,119,2.0,2.0,70,0.00,,,0.00,Wunderground v.1.15,2013-04-28 08:51:00,
2013-04-28 04:56:00,51.3,41.8,30.23,ESE,119,4.0,4.0,70,0.00,,,0.00,Wunderground v.1.15,2013-04-28 08:56:00,
2013-04-28 05:01:00,51.2,42.1,30.23,ESE,119,2.0,5.0,71,0.00,,,0.00,Wunderground v.1.15,2013-04-28 09:01:00,
2013-04-28 05:06:00,51.2,42.1,30.23,ESE,119,0.0,5.0,71,0.00,,,0.00,Wunderground v.1.15,2013-04-28 09:06:00,
2013-04-28 05:11:00,51.1,42.0,30.23,ESE,120,8.0,8.0,71,0.00,,,0.00,Wunderground v.1.15,2013-04-28 09:11:00,
2013-04-28 05:16:00,51.2,42.1,30.23,ESE,120,0.0,8.0,71,0.00,,,0.00,Wunderground v.1.15,2013-04-28 09:16:00,
2013-04-28 05:21:00,51.2,42.1,30.23,ESE,120,1.0,3.0,71,0.00,,,0.00,Wunderground v.1.15,2013-04-28 09:21:00,
2013-04-28 05:26:00,51.2,42.1,30.23,ESE,120,4.0,7.0,71,0.00,,,0.00,Wunderground v.1.15,2013-04-28 09:26:00,
2013-04-28 05:31:00,51.3,41.8,30.22,ESE,120,2.0,5.0,70,0.00,,,0.00,Wunderground v.1.15,2013-04-28 09:31:00,
2013-04-28 05:36:00,51.4,41.9,30.22,ESE,120,1.0,5.0,70,0.00,,,0.00,Wunderground v.1.15,2013-04-28 09:36:00,
2013-04-28 05:41:00,51.4,42.3,30.22,ESE,120,3.0,6.0,71,0.00,,,0.00,Wunderground v.1.15,2013-04-28 09:41:00,
2013-04-28 05:46:00,51.3,41.8,30.22,ESE,120,0.0,7.0,70,0.00,,,0.00,Wunderground v.1.15,2013-04-28 09:46:00,
2013-04-28 05:51:00,51.1,42.0,30.22,ESE,120,1.0,2.0,71,0.00,,,0.00,Wunderground v.1.15,2013-04-28 09:51:00,
2013-04-28 05:56:00,51.0,41.6,30.23,ESE,120,1.0,4.0,70,0.00,,,0.00,Wunderground v.1.15,2013-04-28 09:56:00,
2013-04-28 06:01:00,50.9,41.8,30.23,ESE,120,3.0,4.0,71,0.00,,,0.00,Wunderground v.1.15,2013-04-28 10:01:00,
2013-04-28 06:06:00,51.0,41.6,30.24,ESE,120,3.0,6.0,70,0.00,,,0.00,Wunderground v.1.15,2013-04-28 10:06:00,
2013-04-28 06:11:00,51.0,41.9,30.23,ESE,120,2.0,5.0,71,0.00,,,0.00,Wunderground v.1.15,2013-04-28 10:11:00,
2013-04-28 06:16:00,51.0,41.9,30.23,ESE,120,2.0,5.0,71,0.00,,,0.00,Wunderground v.1.15,2013-04-28 10:16:00,
2013-04-28 06:21:00,51.0,41.9,30.23,ESE,120,0.0,3.0,71,0.00,,,0.00,Wunderground v.1.15,2013-04-28 10:21:00,
2013-04-28 06:26:00,51.0,41.9,30.24,ESE,120,0.0,4.0,71,0.00,,,0.00,Wunderground v.1.15,2013-04-28 10:26:00,
2013-04-28 06:31:00,50.9,41.8,30.24,ESE,120,2.0,2.0,71,0.00,,,0.00,Wunderground v.1.15,2013-04-28 10:31:00,
2013-04-28 06:37:00,50.8,41.7,30.24,ESE,120,1.0,4.0,71,0.00,,,0.00,Wunderground v.1.15,2013-04-28 10:37:00,
2013-04-28 06:42:00,50.8,42.1,30.24,ESE,120,1.0,3.0,72,0.00,,,0.00,Wunderground v.1.15,2013-04-28 10:42:00,
2013-04-28 06:47:00,50.7,42.0,30.25,ESE,120,2.0,4.0,72,0.00,,,0.00,Wunderground v.1.15,2013-04-28 10:47:00,
2013-04-28 06:52:00,50.7,42.4,30.25,ESE,120,3.0,3.0,73,0.00,,,0.00,Wunderground v.1.15,2013-04-28 10:52:00,
2013-04-28 06:57:00,50.6,42.3,30.25,ESE,120,0.0,3.0,73,0.00,,,0.00,Wunderground v.1.15,2013-04-28 10:57:00,
2013-04-28 07:02:00,50.6,42.3,30.25,ESE,120,3.0,4.0,73,0.00,,,0.00,Wunderground v.1.15,2013-04-28 11:02:00,
2013-04-28 07:07:00,50.6,42.3,30.25,ESE,120,1.0,7.0,73,0.00,,,0.00,Wunderground v.1.15,2013-04-28 11:07:00,
2013-04-28 07:12:00,50.9,42.6,30.25,ESE,120,2.0,5.0,73,0.00,,,0.00,Wunderground v.1.15,2013-04-28 11:12:00,
2013-04-28 07:17:00,51.3,42.6,30.25,ESE,120,2.0,5.0,72,0.00,,,0.00,Wunderground v.1.15,2013-04-28 11:17:00,
2013-04-28 07:22:00,51.7,42.6,30.25,ESE,120,0.0,4.0,71,0.00,,,0.00,Wunderground v.1.15,2013-04-28 11:22:00,
2013-04-28 07:27:00,52.1,42.6,30.25,ESE,120,0.0,5.0,70,0.00,,,0.00,Wunderground v.1.15,2013-04-28 11:27:00,
2013-04-28 07:32:00,52.6,42.7,30.25,ESE,120,1.0,3.0,69,0.00,,,0.00,Wunderground v.1.15,2013-04-28 11:32:00,
2013-04-28 07:37:00,53.1,43.2,30.25,ESE,120,0.0,4.0,69,0.00,,,0.00,Wunderground v.1.15,2013-04-28 11:37:00,
2013-04-28 07:42:00,53.7,42.6,30.25,ESE,120,2.0,5.0,66,0.00,,,0.00,Wunderground v.1.15,2013-04-28 11:42:00,
2013-04-28 07:47:00,54.5,43.4,30.25,ESE,122,0.0,7.0,66,0.00,,,0.00,Wunderground v.1.15,2013-04-28 11:47:00,
2013-04-28 07:52:00,55.0,43.4,30.25,ESE,122,1.0,5.0,65,0.00,,,0.00,Wunderground v.1.15,2013-04-28 11:52:00,
2013-04-28 07:57:00,55.4,42.6,30.25,ESE,122,2.0,5.0,62,0.00,,,0.00,Wunderground v.1.15,2013-04-28 11:57:00,
2013-04-28 08:02:00,55.9,43.5,30.25,ESE,122,2.0,6.0,63,0.00,,,0.00,Wunderground v.1.15,2013-04-28 12:02:00,
2013-04-28 08:07:00,56.2,43.8,30.25,ESE,121,5.0,7.0,63,0.00,,,0.00,Wunderground v.1.15,2013-04-28 12:07:00,
2013-04-28 08:12:00,56.5,44.5,30.25,ESE,121,3.0,5.0,64,0.00,,,0.00,Wunderground v.1.15,2013-04-28 12:12:00,
2013-04-28 08:17:00,56.8,44.7,30.25,ESE,121,3.0,5.0,64,0.00,,,0.00,Wunderground v.1.15,2013-04-28 12:17:00,
2013-04-28 08:22:00,56.8,44.3,30.25,ESE,123,4.0,10.0,63,0.00,,,0.00,Wunderground v.1.15,2013-04-28 12:22:00,
2013-04-28 08:27:00,56.8,43.9,30.24,SE,124,3.0,10.0,62,0.00,,,0.00,Wunderground v.1.15,2013-04-28 12:27:00,
2013-04-28 08:32:00,56.9,44.0,30.24,SE,125,2.0,9.0,62,0.00,,,0.00,Wunderground v.1.15,2013-04-28 12:32:00,
2013-04-28 08:37:00,57.2,44.3,30.24,SE,126,2.0,9.0,62,0.00,,,0.00,Wunderground v.1.15,2013-04-28 12:37:00,
2013-04-28 08:42:00,57.5,44.1,30.24,SE,128,5.0,6.0,61,0.00,,,0.00,Wunderground v.1.15,2013-04-28 12:42:00,
2013-04-28 08:47:00,57.6,43.8,30.24,SE,130,0.0,10.0,60,0.00,,,0.00,Wunderground v.1.15,2013-04-28 12:47:00,
2013-04-28 08:52:00,57.9,45.0,30.24,SE,129,5.0,7.0,62,0.00,,,0.00,Wunderground v.1.15,2013-04-28 12:52:00,
2013-04-28 08:57:00,57.9,44.1,30.24,SE,128,5.0,12.0,60,0.00,,,0.00,Wunderground v.1.15,2013-04-28 12:57:00,
2013-04-28 09:02:00,58.0,44.2,30.24,SE,126,3.0,10.0,60,0.00,,,0.00,Wunderground v.1.15,2013-04-28 13:02:00,
2013-04-28 09:07:00,57.9,44.1,30.24,SE,142,5.0,12.0,60,0.00,,,0.00,Wunderground v.1.15,2013-04-28 13:07:00,
2013-04-28 09:12:00,57.6,44.7,30.24,SSE,148,2.0,8.0,62,0.00,,,0.00,Wunderground v.1.15,2013-04-28 13:12:00,
2013-04-28 09:17:00,57.3,44.8,30.24,South,171,2.0,11.0,63,0.00,,,0.00,Wunderground v.1.15,2013-04-28 13:17:00,
2013-04-28 09:22:00,57.2,45.5,30.24,South,174,2.0,7.0,65,0.00,,,0.00,Wunderground v.1.15,2013-04-28 13:22:00,
2013-04-28 09:27:00,57.4,45.7,30.24,South,174,2.0,7.0,65,0.00,,,0.00,Wunderground v.1.15,2013-04-28 13:27:00,
2013-04-28 09:32:00,57.5,45.0,30.24,SSE,165,3.0,9.0,63,0.00,,,0.00,Wunderground v.1.15,2013-04-28 13:32:00,
2013-04-28 09:37:00,57.8,45.3,30.24,SE,130,0.0,10.0,63,0.00,,,0.00,Wunderground v.1.15,2013-04-28 13:37:00,
2013-04-28 09:42:00,58.0,45.9,30.24,SE,142,3.0,10.0,64,0.00,,,0.00,Wunderground v.1.15,2013-04-28 13:42:00,
2013-04-28 09:47:00,58.0,45.0,30.24,SE,139,4.0,10.0,62,0.00,,,0.00,Wunderground v.1.15,2013-04-28 13:47:00,
2013-04-28 09:52:00,58.1,44.7,30.24,SE,142,10.0,11.0,61,0.00,,,0.00,Wunderground v.1.15,2013-04-28 13:52:00,
2013-04-28 09:58:00,58.5,45.9,30.24,SE,125,4.0,11.0,63,0.00,,,0.00,Wunderground v.1.15,2013-04-28 13:58:00,
2013-04-28 10:03:00,59.1,46.5,30.24,ESE,120,2.0,6.0,63,0.00,,,0.00,Wunderground v.1.15,2013-04-28 14:03:00,
2013-04-28 10:08:00,60.4,46.0,30.24,SE,125,2.0,13.0,59,0.00,,,0.00,Wunderground v.1.15,2013-04-28 14:08:00,
2013-04-28 10:13:00,61.1,46.2,30.24,SE,132,12.0,13.0,58,0.00,,,0.00,Wunderground v.1.15,2013-04-28 14:13:00,
2013-04-28 10:18:00,61.5,46.6,30.24,SE,128,7.0,13.0,58,0.00,,,0.00,Wunderground v.1.15,2013-04-28 14:18:00,
2013-04-28 10:23:00,61.8,47.8,30.24,ESE,119,4.0,7.0,60,0.00,,,0.00,Wunderground v.1.15,2013-04-28 14:23:00,
2013-04-28 10:28:00,62.2,47.7,30.24,South,175,13.0,13.0,59,0.00,,,0.00,Wunderground v.1.15,2013-04-28 14:28:00,
2013-04-28 10:33:00,61.8,47.8,30.24,SSE,166,2.0,16.0,60,0.00,,,0.00,Wunderground v.1.15,2013-04-28 14:33:00,
2013-04-28 10:38:00,61.8,47.3,30.24,ESE,119,8.0,16.0,59,0.00,,,0.00,Wunderground v.1.15,2013-04-28 14:38:00,
2013-04-28 10:43:00,61.7,47.2,30.24,ESE,116,6.0,12.0,59,0.00,,,0.00,Wunderground v.1.15,2013-04-28 14:43:00,
2013-04-28 10:48:00,61.9,47.4,30.23,SSE,166,3.0,14.0,59,0.00,,,0.00,Wunderground v.1.15,2013-04-28 14:48:00,
2013-04-28 10:53:00,62.1,47.6,30.24,ESE,123,4.0,12.0,59,0.00,,,0.00,Wunderground v.1.15,2013-04-28 14:53:00,
2013-04-28 10:58:00,62.2,46.8,30.24,SSE,147,7.0,12.0,57,0.00,,,0.00,Wunderground v.1.15,2013-04-28 14:58:00,
2013-04-28 11:03:00,61.9,47.0,30.24,ESE,123,6.0,14.0,58,0.00,,,0.00,Wunderground v.1.15,2013-04-28 15:03:00,
2013-04-28 11:08:00,61.6,47.6,30.24,SE,138,6.0,15.0,60,0.00,,,0.00,Wunderground v.1.15,2013-04-28 15:08:00,
2013-04-28 11:13:00,61.3,46.4,30.24,South,177,3.0,14.0,58,0.00,,,0.00,Wunderground v.1.15,2013-04-28 15:13:00,
2013-04-28 11:18:00,61.2,47.2,30.24,SSE,155,7.0,14.0,60,0.00,,,0.00,Wunderground v.1.15,2013-04-28 15:18:00,
2013-04-28 11:23:00,61.2,46.8,30.24,SSE,154,3.0,13.0,59,0.00,,,0.00,Wunderground v.1.15,2013-04-28 15:23:00,
2013-04-28 11:28:00,61.2,47.2,30.24,SSE,167,2.0,13.0,60,0.00,,,0.00,Wunderground v.1.15,2013-04-28 15:28:00,
2013-04-28 11:33:00,61.4,46.9,30.25,SSE,148,3.0,14.0,59,0.00,,,0.00,Wunderground v.1.15,2013-04-28 15:33:00,
2013-04-28 11:38:00,61.5,47.0,30.24,SE,141,2.0,14.0,59,0.00,,,0.00,Wunderground v.1.15,2013-04-28 15:38:00,
2013-04-28 11:43:00,61.7,46.8,30.24,SSE,148,5.0,9.0,58,0.00,,,0.00,Wunderground v.1.15,2013-04-28 15:43:00,
2013-04-28 11:48:00,62.0,47.5,30.24,SE,136,6.0,9.0,59,0.00,,,0.00,Wunderground v.1.15,2013-04-28 15:48:00,
2013-04-28 11:53:00,62.2,47.2,30.25,SE,144,6.0,11.0,58,0.00,,,0.00,Wunderground v.1.15,2013-04-28 15:53:00,
2013-04-28 11:58:00,62.2,48.1,30.24,SE,137,6.0,14.0,60,0.00,,,0.00,Wunderground v.1.15,2013-04-28 15:58:00,
2013-04-28 12:03:00,62.1,47.1,30.24,South,182,1.0,12.0,58,0.00,,,0.00,Wunderground v.1.15,2013-04-28 16:03:00,
2013-04-28 12:08:00,62.1,47.6,30.24,SSW,213,6.0,13.0,59,0.00,,,0.00,Wunderground v.1.15,2013-04-28 16:08:00,
2013-04-28 12:13:00,61.9,47.0,30.24,South,180,4.0,12.0,58,0.00,,,0.00,Wunderground v.1.15,2013-04-28 16:13:00,
2013-04-28 12:18:00,61.6,46.7,30.24,South,180,3.0,12.0,58,0.00,,,0.00,Wunderground v.1.15,2013-04-28 16:18:00,
2013-04-28 12:23:00,61.4,46.5,30.24,SSE,163,4.0,12.0,58,0.00,,,0.00,Wunderground v.1.15,2013-04-28 16:23:00,
2013-04-28 12:28:00,61.4,46.9,30.24,SSE,159,2.0,12.0,59,0.00,,,0.00,Wunderground v.1.15,2013-04-28 16:28:00,
2013-04-28 12:33:00,61.3,46.8,30.24,ESE,117,11.0,16.0,59,0.00,,,0.00,Wunderground v.1.15,2013-04-28 16:33:00,
2013-04-28 12:38:00,61.1,46.7,30.24,SSE,157,6.0,16.0,59,0.00,,,0.00,Wunderground v.1.15,2013-04-28 16:38:00,
2013-04-28 12:43:00,61.1,46.7,30.24,SSE,150,2.0,7.0,59,0.00,,,0.00,Wunderground v.1.15,2013-04-28 16:43:00,
2013-04-28 12:48:00,61.0,47.0,30.24,SSE,161,3.0,8.0,60,0.00,,,0.00,Wunderground v.1.15,2013-04-28 16:48:00,
2013-04-28 12:53:00,60.6,47.5,30.24,SSW,204,9.0,13.0,62,0.00,,,0.00,Wunderground v.1.15,2013-04-28 16:53:00,
2013-04-28 12:58:00,60.4,48.2,30.24,SSW,212,8.0,13.0,64,0.00,,,0.00,Wunderground v.1.15,2013-04-28 16:58:00,
2013-04-28 13:03:00,59.6,47.4,30.24,South,190,1.0,10.0,64,0.00,,,0.00,Wunderground v.1.15,2013-04-28 17:03:00,
2013-04-28 13:08:00,59.0,47.7,30.24,South,184,5.0,10.0,66,0.00,,,0.00,Wunderground v.1.15,2013-04-28 17:08:00,
2013-04-28 13:13:00,58.7,48.9,30.24,South,171,7.0,11.0,70,0.00,,,0.00,Wunderground v.1.15,2013-04-28 17:13:00,
2013-04-28 13:18:00,58.3,48.2,30.24,South,171,6.0,11.0,69,0.00,,,0.00,Wunderground v.1.15,2013-04-28 17:18:00,
2013-04-28 13:23:00,58.0,48.3,30.24,South,184,5.0,7.0,70,0.00,,,0.00,Wunderground v.1.15,2013-04-28 17:23:00,
2013-04-28 13:28:00,57.7,48.4,30.24,South,184,4.0,7.0,71,0.00,,,0.00,Wunderground v.1.15,2013-04-28 17:28:00,
2013-04-28 13:34:00,57.1,48.2,30.24,South,180,1.0,9.0,72,0.00,,,0.00,Wunderground v.1.15,2013-04-28 17:34:00,
2013-04-28 13:39:00,56.7,49.2,30.24,South,180,3.0,9.0,76,0.00,,,0.00,Wunderground v.1.15,2013-04-28 17:39:00,
2013-04-28 13:44:00,56.5,49.4,30.24,South,180,2.0,5.0,77,0.00,,,0.00,Wunderground v.1.15,2013-04-28 17:44:00,
2013-04-28 13:49:00,56.3,50.2,30.24,South,180,0.0,5.0,80,0.00,,,0.01,Wunderground v.1.15,2013-04-28 17:49:00,
2013-04-28 13:54:00,56.0,49.9,30.24,South,180,0.0,4.0,80,0.00,,,0.01,Wunderground v.1.15,2013-04-28 17:54:00,
2013-04-28 13:59:00,55.7,50.3,30.24,South,180,2.0,4.0,82,0.00,,,0.01,Wunderground v.1.15,2013-04-28 17:59:00,
2013-04-28 14:04:00,55.4,49.7,30.24,South,180,1.0,5.0,81,0.00,,,0.01,Wunderground v.1.15,2013-04-28 18:04:00,
2013-04-28 14:09:00,55.3,49.9,30.24,South,178,2.0,6.0,82,0.00,,,0.01,Wunderground v.1.15,2013-04-28 18:09:00,
2013-04-28 14:14:00,55.0,49.3,30.24,South,175,0.0,7.0,81,0.00,,,0.01,Wunderground v.1.15,2013-04-28 18:14:00,
2013-04-28 14:19:00,54.8,49.1,30.24,SSE,163,0.0,11.0,81,0.00,,,0.01,Wunderground v.1.15,2013-04-28 18:19:00,
2013-04-28 14:24:00,54.6,49.2,30.24,SSE,158,4.0,6.0,82,0.00,,,0.02,Wunderground v.1.15,2013-04-28 18:24:00,
2013-04-28 14:29:00,54.4,49.3,30.24,SSE,158,3.0,7.0,83,0.00,,,0.02,Wunderground v.1.15,2013-04-28 18:29:00,
2013-04-28 14:34:00,54.3,49.6,30.24,SSE,158,3.0,7.0,84,0.00,,,0.02,Wunderground v.1.15,2013-04-28 18:34:00,
2013-04-28 14:39:00,54.1,49.4,30.24,SSE,155,3.0,7.0,84,0.00,,,0.02,Wunderground v.1.15,2013-04-28 18:39:00,
2013-04-28 14:44:00,53.9,49.5,30.24,SSE,155,2.0,5.0,85,0.00,,,0.02,Wunderground v.1.15,2013-04-28 18:44:00,
2013-04-28 14:49:00,53.8,50.0,30.24,SSE,155,2.0,5.0,87,0.00,,,0.03,Wunderground v.1.15,2013-04-28 18:49:00,
2013-04-28 14:54:00,53.7,49.6,30.24,SSE,155,0.0,5.0,86,0.00,,,0.03,Wunderground v.1.15,2013-04-28 18:54:00,
2013-04-28 14:59:00,53.5,49.7,30.24,SSE,155,1.0,6.0,87,0.00,,,0.03,Wunderground v.1.15,2013-04-28 18:59:00,
2013-04-28 15:04:00,53.4,50.2,30.24,SSE,155,2.0,5.0,89,0.00,,,0.04,Wunderground v.1.15,2013-04-28 19:04:00,
2013-04-28 15:09:00,53.3,50.1,30.24,SSE,155,0.0,5.0,89,0.00,,,0.04,Wunderground v.1.15,2013-04-28 19:09:00,
2013-04-28 15:14:00,53.3,50.4,30.23,SSE,155,1.0,5.0,90,0.07,,,0.05,Wunderground v.1.15,2013-04-28 19:14:00,
2013-04-28 15:19:00,53.3,50.4,30.23,SSE,155,0.0,5.0,90,0.06,,,0.05,Wunderground v.1.15,2013-04-28 19:19:00,
2013-04-28 15:24:00,53.3,50.7,30.22,SSE,155,0.0,4.0,91,0.04,,,0.05,Wunderground v.1.15,2013-04-28 19:24:00,
2013-04-28 15:29:00,53.4,50.8,30.22,SSE,155,0.0,4.0,91,0.04,,,0.06,Wunderground v.1.15,2013-04-28 19:29:00,
2013-04-28 15:35:00,53.3,50.7,30.22,SSE,155,0.0,2.0,91,0.04,,,0.06,Wunderground v.1.15,2013-04-28 19:35:00,
2013-04-28 15:40:00,53.3,51.0,30.22,SSE,155,1.0,1.0,92,0.04,,,0.06,Wunderground v.1.15,2013-04-28 19:40:00,
2013-04-28 15:45:00,53.2,50.3,30.21,SSE,154,0.0,6.0,90,0.04,,,0.07,Wunderground v.1.15,2013-04-28 19:45:00,
2013-04-28 15:50:00,53.1,50.5,30.21,SSE,154,0.0,1.0,91,0.04,,,0.07,Wunderground v.1.15,2013-04-28 19:50:00,
2013-04-28 15:55:00,53.0,50.4,30.21,SSE,154,0.0,3.0,91,0.04,,,0.07,Wunderground v.1.15,2013-04-28 19:55:00,
2013-04-28 16:00:00,53.0,50.7,30.20,SSE,154,0.0,2.0,92,0.00,,,0.07,Wunderground v.1.15,2013-04-28 20:00:00,
2013-04-28 16:05:00,52.8,50.5,30.20,SSE,154,0.0,2.0,92,0.00,,,0.07,Wunderground v.1.15,2013-04-28 20:05:00,
2013-04-28 16:10:00,52.7,50.4,30.20,SSE,154,0.0,0.0,92,0.00,,,0.07,Wunderground v.1.15,2013-04-28 20:10:00,
2013-04-28 16:15:00,52.7,50.7,30.20,SSE,154,0.0,4.0,93,0.00,,,0.07,Wunderground v.1.15,2013-04-28 20:15:00,
2013-04-28 16:20:00,52.8,50.5,30.19,SSE,154,0.0,1.0,92,0.00,,,0.07,Wunderground v.1.15,2013-04-28 20:20:00,
2013-04-28 16:25:00,52.9,50.6,30.19,SSE,154,0.0,3.0,92,0.00,,,0.07,Wunderground v.1.15,2013-04-28 20:25:00,
2013-04-28 16:30:00,53.0,50.7,30.19,SSE,154,2.0,3.0,92,0.00,,,0.07,Wunderground v.1.15,2013-04-28 20:30:00,
2013-04-28 16:35:00,53.2,50.9,30.18,SSE,154,3.0,5.0,92,0.00,,,0.07,Wunderground v.1.15,2013-04-28 20:35:00,
2013-04-28 16:40:00,53.3,50.4,30.19,SSE,154,1.0,4.0,90,0.00,,,0.07,Wunderground v.1.15,2013-04-28 20:40:00,
2013-04-28 16:45:00,53.4,50.5,30.18,SSE,153,7.0,7.0,90,0.00,,,0.07,Wunderground v.1.15,2013-04-28 20:45:00,
2013-04-28 16:50:00,53.5,50.0,30.18,SSE,152,3.0,3.0,88,0.00,,,0.07,Wunderground v.1.15,2013-04-28 20:50:00,
2013-04-28 16:55:00,53.5,49.7,30.18,SSE,152,3.0,6.0,87,0.00,,,0.07,Wunderground v.1.15,2013-04-28 20:55:00,
2013-04-28 17:00:00,53.6,50.1,30.18,SSE,151,4.0,4.0,88,0.00,,,0.07,Wunderground v.1.15,2013-04-28 21:00:00,
2013-04-28 17:06:00,53.6,49.8,30.18,SSE,152,2.0,5.0,87,0.00,,,0.07,Wunderground v.1.15,2013-04-28 21:06:00,
2013-04-28 17:11:00,53.6,49.8,30.18,SSE,152,0.0,1.0,87,0.00,,,0.08,Wunderground v.1.15,2013-04-28 21:11:00,
2013-04-28 17:16:00,53.5,50.0,30.18,SSE,152,0.0,1.0,88,0.00,,,0.08,Wunderground v.1.15,2013-04-28 21:16:00,
2013-04-28 17:21:00,53.4,50.2,30.18,SSE,152,0.0,0.0,89,0.00,,,0.08,Wunderground v.1.15,2013-04-28 21:21:00,
2013-04-28 17:26:00,53.3,50.4,30.18,SSE,152,0.0,2.0,90,0.00,,,0.08,Wunderground v.1.15,2013-04-28 21:26:00,
2013-04-28 17:31:00,53.1,50.5,30.18,SSE,152,0.0,0.0,91,0.00,,,0.08,Wunderground v.1.15,2013-04-28 21:31:00,
2013-04-28 17:36:00,52.9,50.6,30.18,SSE,152,0.0,0.0,92,0.00,,,0.08,Wunderground v.1.15,2013-04-28 21:36:00,
2013-04-28 17:41:00,52.7,50.4,30.18,SSE,152,0.0,1.0,92,0.00,,,0.08,Wunderground v.1.15,2013-04-28 21:41:00,
2013-04-28 17:46:00,52.6,50.3,30.17,SSE,152,0.0,1.0,92,0.00,,,0.08,Wunderground v.1.15,2013-04-28 21:46:00,
2013-04-28 17:51:00,52.4,49.8,30.17,SSE,152,0.0,4.0,91,0.00,,,0.08,Wunderground v.1.15,2013-04-28 21:51:00,
2013-04-28 17:56:00,52.4,49.8,30.16,SSE,151,2.0,4.0,91,0.00,,,0.08,Wunderground v.1.15,2013-04-28 21:56:00,
2013-04-28 18:01:00,52.5,49.7,30.16,SSE,151,1.0,4.0,90,0.00,,,0.08,Wunderground v.1.15,2013-04-28 22:01:00,
2013-04-28 18:06:00,52.7,49.5,30.15,SSE,152,1.0,4.0,89,0.00,,,0.08,Wunderground v.1.15,2013-04-28 22:06:00,
2013-04-28 18:11:00,53.0,48.9,30.15,SSE,152,2.0,3.0,86,0.00,,,0.08,Wunderground v.1.15,2013-04-28 22:11:00,
2013-04-28 18:16:00,53.2,48.5,30.15,SSE,152,2.0,5.0,84,0.00,,,0.08,Wunderground v.1.15,2013-04-28 22:16:00,
2013-04-28 18:21:00,53.4,48.7,30.14,SSE,152,1.0,3.0,84,0.00,,,0.08,Wunderground v.1.15,2013-04-28 22:21:00,
2013-04-28 18:26:00,53.5,49.1,30.14,SSE,147,3.0,6.0,85,0.00,,,0.08,Wunderground v.1.15,2013-04-28 22:26:00,
2013-04-28 18:31:00,53.5,49.1,30.14,SE,146,1.0,5.0,85,0.00,,,0.08,Wunderground v.1.15,2013-04-28 22:31:00,
2013-04-28 18:36:00,53.5,49.1,30.14,SE,146,4.0,6.0,85,0.00,,,0.08,Wunderground v.1.15,2013-04-28 22:36:00,
2013-04-28 18:41:00,53.6,48.9,30.13,SE,144,2.0,5.0,84,0.00,,,0.08,Wunderground v.1.15,2013-04-28 22:41:00,
2013-04-28 18:46:00,53.5,48.8,30.13,SE,143,4.0,5.0,84,0.00,,,0.08,Wunderground v.1.15,2013-04-28 22:46:00,
2013-04-28 18:51:00,53.5,49.1,30.13,SE,142,4.0,6.0,85,0.00,,,0.08,Wunderground v.1.15,2013-04-28 22:51:00,
2013-04-28 18:57:00,53.6,49.2,30.13,SE,142,5.0,6.0,85,0.00,,,0.08,Wunderground v.1.15,2013-04-28 22:57:00,
2013-04-28 19:02:00,53.6,49.2,30.12,SE,130,2.0,6.0,85,0.00,,,0.08,Wunderground v.1.15,2013-04-28 23:02:00,
2013-04-28 19:07:00,53.7,49.0,30.12,ESE,117,3.0,6.0,84,0.00,,,0.08,Wunderground v.1.15,2013-04-28 23:07:00,
2013-04-28 19:12:00,53.7,49.0,30.12,ESE,115,3.0,6.0,84,0.00,,,0.08,Wunderground v.1.15,2013-04-28 23:12:00,
2013-04-28 19:17:00,53.7,49.0,30.12,ESE,109,1.0,9.0,84,0.00,,,0.08,Wunderground v.1.15,2013-04-28 23:17:00,
2013-04-28 19:22:00,53.8,49.1,30.13,ESE,108,1.0,5.0,84,0.00,,,0.08,Wunderground v.1.15,2013-04-28 23:22:00,
2013-04-28 19:27:00,53.8,49.1,30.12,ESE,108,3.0,5.0,84,0.00,,,0.08,Wunderground v.1.15,2013-04-28 23:27:00,
2013-04-28 19:32:00,53.7,49.0,30.12,ESE,109,3.0,4.0,84,0.00,,,0.08,Wunderground v.1.15,2013-04-28 23:32:00,
2013-04-28 19:37:00,53.7,49.0,30.12,ESE,109,2.0,5.0,84,0.00,,,0.08,Wunderground v.1.15,2013-04-28 23:37:00,
2013-04-28 19:42:00,53.7,49.0,30.13,ESE,108,2.0,6.0,84,0.00,,,0.08,Wunderground v.1.15,2013-04-28 23:42:00,
2013-04-28 19:47:00,53.7,49.0,30.13,ESE,108,2.0,6.0,84,0.00,,,0.08,Wunderground v.1.15,2013-04-28 23:47:00,
2013-04-28 19:52:00,53.8,49.1,30.12,ESE,108,2.0,5.0,84,0.00,,,0.08,Wunderground v.1.15,2013-04-28 23:52:00,
2013-04-28 19:57:00,53.8,49.1,30.13,ESE,108,0.0,5.0,84,0.00,,,0.08,Wunderground v.1.15,2013-04-28 23:57:00,
2013-04-28 20:02:00,53.9,49.2,30.13,ESE,108,0.0,2.0,84,0.00,,,0.08,Wunderground v.1.15,2013-04-29 00:02:00,
2013-04-28 20:07:00,53.9,48.9,30.13,ESE,108,2.0,5.0,83,0.00,,,0.08,Wunderground v.1.15,2013-04-29 00:07:00,
2013-04-28 20:12:00,53.9,48.9,30.13,ESE,108,2.0,4.0,83,0.00,,,0.08,Wunderground v.1.15,2013-04-29 00:12:00,
2013-04-28 20:17:00,54.0,48.6,30.12,ESE,107,3.0,7.0,82,0.00,,,0.08,Wunderground v.1.15,2013-04-29 00:17:00,
2013-04-28 20:22:00,54.2,48.5,30.12,SE,132,4.0,12.0,81,0.00,,,0.08,Wunderground v.1.15,2013-04-29 00:22:00,
2013-04-28 20:27:00,54.4,48.4,30.13,SE,130,3.0,12.0,80,0.00,,,0.08,Wunderground v.1.15,2013-04-29 00:27:00,
2013-04-28 20:32:00,54.6,48.6,30.13,SE,130,2.0,5.0,80,0.00,,,0.08,Wunderground v.1.15,2013-04-29 00:32:00,
2013-04-28 20:37:00,54.6,48.6,30.13,SE,130,0.0,5.0,80,0.00,,,0.08,Wunderground v.1.15,2013-04-29 00:37:00,
2013-04-28 20:42:00,54.7,48.6,30.13,SE,129,2.0,6.0,80,0.00,,,0.08,Wunderground v.1.15,2013-04-29 00:42:00,
2013-04-28 20:47:00,54.7,49.0,30.13,SE,129,2.0,6.0,81,0.00,,,0.08,Wunderground v.1.15,2013-04-29 00:47:00,
2013-04-28 20:52:00,54.6,48.9,30.13,SE,129,3.0,4.0,81,0.00,,,0.08,Wunderground v.1.15,2013-04-29 00:52:00,
2013-04-28 20:57:00,54.6,48.6,30.14,SE,126,3.0,10.0,80,0.00,,,0.08,Wunderground v.1.15,2013-04-29 00:57:00,
2013-04-28 21:02:00,54.6,48.9,30.14,ESE,121,5.0,5.0,81,0.00,,,0.08,Wunderground v.1.15,2013-04-29 01:02:00,
2013-04-28 21:07:00,54.6,48.6,30.14,ESE,112,2.0,7.0,80,0.00,,,0.08,Wunderground v.1.15,2013-04-29 01:07:00,
2013-04-28 21:12:00,54.6,48.2,30.14,ESE,111,6.0,6.0,79,0.00,,,0.08,Wunderground v.1.15,2013-04-29 01:12:00,
2013-04-28 21:17:00,54.7,48.0,30.14,ESE,112,4.0,7.0,78,0.00,,,0.08,Wunderground v.1.15,2013-04-29 01:17:00,
2013-04-28 21:22:00,54.8,47.7,30.14,ESE,109,0.0,6.0,77,0.00,,,0.08,Wunderground v.1.15,2013-04-29 01:22:00,
2013-04-28 21:27:00,54.9,47.8,30.13,ESE,111,1.0,9.0,77,0.00,,,0.08,Wunderground v.1.15,2013-04-29 01:27:00,
2013-04-28 21:32:00,55.0,47.6,30.13,ESE,112,7.0,7.0,76,0.00,,,0.08,Wunderground v.1.15,2013-04-29 01:32:00,
2013-04-28 21:37:00,55.1,47.3,30.13,ESE,111,6.0,12.0,75,0.00,,,0.08,Wunderground v.1.15,2013-04-29 01:37:00,
2013-04-28 21:42:00,55.1,47.3,30.14,ESE,111,6.0,6.0,75,0.00,,,0.08,Wunderground v.1.15,2013-04-29 01:42:00,
2013-04-28 21:47:00,55.1,47.3,30.13,ESE,121,9.0,10.0,75,0.00,,,0.08,Wunderground v.1.15,2013-04-29 01:47:00,
2013-04-28 21:52:00,55.2,47.8,30.14,ESE,122,5.0,6.0,76,0.00,,,0.08,Wunderground v.1.15,2013-04-29 01:52:00,
2013-04-28 21:58:00,55.2,47.8,30.14,ESE,118,2.0,9.0,76,0.00,,,0.08,Wunderground v.1.15,2013-04-29 01:58:00,
2013-04-28 22:03:00,55.1,47.7,30.14,ESE,115,10.0,11.0,76,0.00,,,0.08,Wunderground v.1.15,2013-04-29 02:03:00,
2013-04-28 22:08:00,55.0,47.6,30.13,ESE,121,8.0,12.0,76,0.00,,,0.08,Wunderground v.1.15,2013-04-29 02:08:00,
2013-04-28 22:13:00,55.0,47.6,30.14,ESE,115,2.0,9.0,76,0.00,,,0.08,Wunderground v.1.15,2013-04-29 02:13:00,
2013-04-28 22:18:00,55.0,47.6,30.14,ESE,115,3.0,10.0,76,0.00,,,0.08,Wunderground v.1.15,2013-04-29 02:18:00,
2013-04-28 22:23:00,55.0,47.9,30.14,ESE,113,2.0,11.0,77,0.00,,,0.08,Wunderground v.1.15,2013-04-29 02:23:00,
2013-04-28 22:28:00,55.0,48.3,30.14,ESE,113,1.0,11.0,78,0.00,,,0.08,Wunderground v.1.15,2013-04-29 02:28:00,
2013-04-28 22:33:00,54.9,48.2,30.14,ESE,119,3.0,12.0,78,0.00,,,0.08,Wunderground v.1.15,2013-04-29 02:33:00,
2013-04-28 22:38:00,54.9,48.2,30.14,ESE,115,1.0,12.0,78,0.00,,,0.08,Wunderground v.1.15,2013-04-29 02:38:00,
2013-04-28 22:43:00,54.9,48.2,30.14,SE,127,5.0,10.0,78,0.00,,,0.08,Wunderground v.1.15,2013-04-29 02:43:00,
2013-04-28 22:48:00,54.9,48.2,30.13,SE,126,7.0,14.0,78,0.00,,,0.08,Wunderground v.1.15,2013-04-29 02:48:00,
2013-04-28 22:53:00,55.0,48.3,30.13,ESE,120,2.0,7.0,78,0.00,,,0.08,Wunderground v.1.15,2013-04-29 02:53:00,
2013-04-28 22:59:00,54.9,48.2,30.13,ESE,120,4.0,10.0,78,0.00,,,0.08,Wunderground v.1.15,2013-04-29 02:59:00,
2013-04-28 23:04:00,54.8,48.1,30.13,ESE,120,4.0,6.0,78,0.00,,,0.08,Wunderground v.1.15,2013-04-29 03:04:00,
2013-04-28 23:09:00,54.8,48.1,30.12,ESE,106,5.0,10.0,78,0.00,,,0.08,Wunderground v.1.15,2013-04-29 03:09:00,
2013-04-28 23:14:00,54.7,48.3,30.12,ESE,108,5.0,7.0,79,0.00,,,0.08,Wunderground v.1.15,2013-04-29 03:14:00,
2013-04-28 23:18:00,54.7,48.3,30.12,ESE,107,6.0,10.0,79,0.00,,,0.08,Wunderground v.1.15,2013-04-29 03:18:00,
2013-04-28 23:24:00,54.6,48.2,30.12,ESE,108,11.0,11.0,79,0.00,,,0.08,Wunderground v.1.15,2013-04-29 03:24:00,
2013-04-28 23:29:00,54.7,48.3,30.12,ESE,109,4.0,11.0,79,0.00,,,0.08,Wunderground v.1.15,2013-04-29 03:29:00,
2013-04-28 23:34:00,54.7,48.3,30.12,ESE,110,4.0,9.0,79,0.00,,,0.08,Wunderground v.1.15,2013-04-29 03:34:00,
2013-04-28 23:39:00,54.6,48.6,30.12,ESE,121,2.0,14.0,80,0.00,,,0.08,Wunderground v.1.15,2013-04-29 03:39:00,
2013-04-28 23:44:00,54.7,48.6,30.12,SE,126,5.0,10.0,80,0.00,,,0.08,Wunderground v.1.15,2013-04-29 03:44:00,
2013-04-28 23:49:00,54.7,48.6,30.12,SE,127,4.0,11.0,80,0.00,,,0.08,Wunderground v.1.15,2013-04-29 03:49:00,
2013-04-28 23:54:00,54.7,48.6,30.12,ESE,120,4.0,10.0,80,0.00,,,0.08,Wunderground v.1.15,2013-04-29 03:54:00,
2013-04-28 23:59:00,54.7,48.6,30.12,ESE,113,4.0,13.0,80,0.00,,,0.08,Wunderground v.1.15,2013-04-29 03:59:00,